Location: Bouchavesnes-Bergen
(49.9859°N, 2.9203°E)
Time: 04:37:35
(UTC+00:00)

Cosmos 2074 Rocket - Pass Details

Date: 09 March 2021
Orbit: 966 x 987 km, 82.9° (Epoch: 11 April)

Event Time Altitude Azimuth Distance (km) Brightness Sun altitude
Rises 04:48:34 0° 349° (NNW) 3,674 7.0 -14.6°
Reaches altitude 10° 04:51:05 10° 348° (NNW) 2,721 6.3 -14.2°
Maximum altitude 04:57:17 74° 265° (W) 1,007 3.9 -13.2°
Drops below altitude 10° 05:03:27 10° 181° (S) 2,701 6.2 -12.3°
Sets 05:05:56 0° 179° (S) 3,645 6.9 -11.9°
